www.pogodaiklimat.ru

Погода и климат >> Архив погоды >> Хорватия >> Senj


ПОГОДА в Senj

  • Прогноз погоды в Senj
  • Монитор погоды в Senj
  • Климат города

АРХИВ ПОГОДЫ в Senj

Время (UTC), дата Ветер
(напр.,м/с)
 
Видим.   Явления Облачность Т
(С)
Тd
(С)
f
(%)
Тe
(С)
Тes
(С)
Комфортность P
(гПа)
Po
(гПа)
Тmin
(С)
Tmax
(С)
R
(мм)
R24
(мм)
S
(см)
04 15.10 В 8 18 км 9/5 1000 м
[Sc Ci sp]
+18.3 +10.3 60 +18 +18 1018.3 1015.0
05 15.10 В 6 18 км 10/10 1000 м
[Sc]
+18.1 +9.6 58 +18 +18 1018.6 1015.3
06 15.10 В 7 18 км 10/3 1000 м
[Sc Ac As]
+18.5 +10.3 59 +18 +18 1019.0 1015.7 +18.1
07 15.10 В 7 18 км 10/4 1000 м
[Sc Ac As]
+18.9 +11.2 61 +19 +19 1019.4 1016.1
08 15.10 В 6 18 км 10/4 1000 м
[Sc Ac As]
+19.4 +12.2 63 +20 +20 1019.4 1016.1
09 15.10 В 4 18 км 10/6 1000 м
[Sc Ac As]
+20.5 +12.5 60 +23 +23 комфорт 1019.7 1016.4
10 15.10 В 5 15 км слабый дождь 10/10 1000 м
[Sc]
+20.0 +11.9 60 +22 +22 комфорт 1020.0 1016.7
11 15.10 В 5 12 км слабый дождь 10/3 1000 м
[Sc As op]
+17.7 +13.6 77 +17 +18 1020.2 1016.9
12 15.10 В 3 12 км слабый дождь 10/4 1000 м
[Sc As op]
+17.5 +13.7 78 +18 +18 1020.1 1016.8 2
13 15.10 В 4 15 км слабый дождь 10/10 1000 м
[Sc]
+18.5 +15.6 83 +19 +19 1019.9 1016.6
18 15.10 В 5 15 км слабый дождь 10/10 1000 м
[Sc]
+18.9 +12.5 66 +19 +19 1020.1 1016.8 +20.5 2
19 15.10 В 4 18 км в посл. час дождь 10/10 1000 м
[Sc]
+18.5 +12.5 68 +19 +19 1020.2 1016.9
20 15.10 В 6 18 км 10/10 1000 м
[Sc]
+18.3 +12.2 68 +18 +18 1020.1 1016.8
03 16.10 В 4 15 км 6/6 1000 м
[Sc]
+18.4 +10.6 60 +19 +19 1019.1 1015.8
05 16.10 В 5 15 км 9/9 1000 м
[Sc]
+18.4 +12.0 66 +18 +18 1018.9 1015.6
04 16.10 ЮЗ 1 15 км 9/9 1000 м
[Sc]
+17.3 +14.8 85 +18 +18 1019.1 1015.8
06 16.10 В 3 15 км 9/9 1000 м
[Sc]
+18.9 +11.8 63 +20 +20 1019.4 1016.1 +17.3
07 16.10 С 1 15 км 9/9 1000 м
[Sc]
+18.2 +14.6 80 +20 +20 1020.1 1016.8
08 16.10 СЗ 1 15 км 9/9 1000 м
[Sc]
+18.4 +14.8 80 +20 +20 1020.5 1017.2
09 16.10 В 3 15 км 9/9 1000 м
[Sc]
+19.0 +12.5 66 +20 +21 1020.6 1017.3
11 16.10 СЗ 2 15 км 9/9 1000 м
[Sc]
+19.4 +14.0 71 +22 +22 комфорт 1020.8 1017.5
10 16.10 СЗ 1 15 км 9/9 1000 м
[Sc]
+20.4 +13.5 65 +24 +25 комфорт 1020.7 1017.4
12 16.10 СЗ 1 15 км 9/9 1000 м
[Sc]
+19.7 +13.6 68 +23 +23 комфорт 1020.7 1017.4
13 16.10 С 1 15 км 9/9 1000 м
[Sc]
+20.0 +13.1 64 +23 +24 комфорт 1020.3 1017.0
18 16.10 СЗ 1 15 км 9/9 1000 м
[Sc]
+19.0 +14.3 74 +21 +21 комфорт 1020.3 1017.0 +21.2
19 16.10 ЮВ 1 15 км 8/8 1000 м
[Sc]
+17.3 +13.6 79 +18 +18 1020.3 1017.0
20 16.10 СЗ 1 15 км 9/9 1000 м
[Sc]
+17.2 +13.9 81 +18 +18 1020.3 1017.0
03 17.10 С 1 15 км 5/5 1000 м
[Sc]
+16.5 +14.2 86 +17 +17 1018.8 1015.5
04 17.10 СЗ 1 18 км 8/8 1000 м
[Sc]
+16.4 +14.1 86 +17 +17 1018.8 1015.5
05 17.10 СЗ 1 15 км 9/9 1000 м
[Sc]
+17.3 +14.5 84 +18 +18 1019.0 1015.7
06 17.10 В 2 15 км 9/9 1000 м
[Sc]
+18.4 +12.0 66 +19 +19 1018.9 1015.6 +16.2
07 17.10 В 3 15 км 9/9 1000 м
[Sc]
+19.6 +12.8 65 +21 +21 комфорт 1019.3 1016.0
08 17.10 ЮЗ 1 15 км 8/8 1000 м
[Sc]
+18.6 +13.7 73 +20 +21 1019.1 1015.8
09 17.10 СЗ 2 15 км 8/8 1000 м
[Cu Sc]
+19.0 +15.5 80 +21 +22 комфорт 1019.1 1015.8
10 17.10 С 1 15 км 8/8 1000 м
[Cu Sc]
+20.5 +12.7 61 +24 +25 комфорт 1018.7 1015.4
11 17.10 З 1 15 км 8/8 1000 м
[Cu Sc]
+21.5 +14.6 65 +25 +26 комфорт 1018.3 1015.0
12 17.10 Ю 2 15 км 6/6 1000 м
[Cu Sc]
+22.6 +13.2 55 +26 +28 жарко 1018.2 1014.9
13 17.10 З 1 15 км 4/1 1000 м
[Cu hum Ac trans]
+23.4 +12.6 51 +26 +30 жарко 1017.5 1014.3
18 17.10 СВ 5 15 км 6/6 1000 м
[Sc]
+21.2 +14.3 65 +24 +24 комфорт 1017.0 1013.7 +24.1
20 17.10 В 8 15 км 8/5 1000 м
[Sc Ci sp]
+20.7 +13.1 62 +23 +23 комфорт 1017.2 1013.9
19 17.10 В 7 15 км 8/8 1000 м
[Sc]
+21.0 +13.7 63 +24 +24 комфорт 1017.2 1013.9
03 18.10 В 9 15 км 4/4 1000 м
[Sc]
+19.8 +12.1 61 +21 +21 комфорт 1016.1 1012.8
04 18.10 15 км н/о +19.8 +11.3 58 +21 +21 комфорт 1015.5 1012.2
05 18.10 В 9 15 км 8/8 1000 м
[Sc]
+19.5 +10.9 58 +20 +20 1015.5 1012.2
06 18.10 В 8 15 км 9/9 1000 м
[Sc]
+19.8 +10.7 56 +21 +21 комфорт 1015.5 1012.2 +19.4
08 18.10 В 7 12 км 9/9 1000 м
[Sc]
+21.3 +11.2 53 +23 +23 комфорт 1016.0 1012.7
07 18.10 В 8 15 км 9/9 1000 м
[Sc]
+20.0 +10.8 55 +21 +21 комфорт 1016.0 1012.7
09 18.10 В 6 12 км 9/9 1000 м
[Sc]
+21.5 +11.4 53 +24 +24 комфорт 1016.2 1012.9
10 18.10 В 5 12 км 9/9 1000 м
[Sc]
+25.0 +13.6 49 +27 +27 жарко 1015.9 1012.7
11 18.10 В 4 12 км 10/10 1000 м
[Sc]
+23.5 +11.3 46 +25 +25 комфорт 1015.6 1012.4
12 18.10 СВ 4 12 км 9/9 1000 м
[Sc]
+23.5 +11.9 48 +25 +26 комфорт 1015.1 1011.9
13 18.10 В 5 15 км 9/9 1000 м
[Sc]
+23.3 +12.1 49 +26 +26 жарко 1014.8 1011.6
18 18.10 СВ 10
{18}
15 км 9/9 1000 м
[Sc]
+20.3 +10.3 53 +21 +21 комфорт 1015.2 1011.9 +23.7
19 18.10 СВ 10
{19}
15 км 9/9 1000 м
[Sc]
+20.3 +9.5 50 +21 +21 комфорт 1015.8 1012.5
20 18.10 В 10
{19}
15 км 9/9 1000 м
[Sc]
+20.5 +9.5 49 +21 +21 комфорт 1015.6 1012.3
03 19.10 СВ 10 15 км 4/4 1000 м
[Sc]
+18.2 +8.5 53 +17 +17 1015.6 1012.3
04 19.10 СВ 9 15 км ясно +17.7 +8.7 56 +17 +17 1015.7 1012.4
05 19.10 В 10 15 км ясно +17.8 +10.5 62 +17 +17 1016.0 1012.7
06 19.10 В 10 15 км 3/0
[Ac trans]
+17.8 +11.3 66 +17 +17 1016.9 1013.6 +17.6
07 19.10 В 11 15 км 5/0
[Ac und]
+18.4 +11.2 63 +18 +18 1017.2 1013.9
08 19.10 В 11 15 км 3/0
[Ac trans]
+19.3 +11.1 59 +19 +19 1017.4 1014.1
09 19.10 В 11 15 км 3/0
[Ac trans]
+20.4 +10.2 52 +21 +21 комфорт 1017.4 1014.1
10 19.10 В 9 15 км 8/0
[Ac trans Cc]
+22.4 +10.3 46 +24 +25 комфорт 1017.6 1014.3
11 19.10 В 8 15 км 9/5 1000 м
[Sc Ac trans]
+22.2 +10.9 49 +24 +25 комфорт 1017.6 1014.3
12 19.10 В 8 15 км 3/1 1000 м
[Cu hum Ac trans]
+23.4 +10.5 44 +25 +26 комфорт 1017.1 1013.9
13 19.10 В 7 15 км 1/1 1000 м
[Cu hum]
+23.8 +11.9 47 +25 +27 комфорт 1017.0 1013.8
18 19.10 В 10 15 км ясно +19.7 +11.4 59 +20 +20 1018.2 1014.9 +24.2
19 19.10 В 8 15 км ясно +18.9 +12.2 65 +19 +19 1018.2 1014.9
20 19.10 В 11 15 км ясно +19.0 +12.3 65 +19 +19 1018.6 1015.3
03 20.10 В 9
{16}
15 км ясно +17.1 +11.4 69 +16 +16 1019.8 1016.5
05 20.10 В 11
{22}
15 км ясно +16.8 +10.7 67 +15 +15 1020.3 1017.0
04 20.10 В 11 15 км ясно +16.7 +11.2 70 +15 +15 1020.2 1016.9
06 20.10 В 10
{19}
15 км 1/1 1000 м
[St Ci fib]
+16.9 +10.6 66 +15 +15 1021.4 1018.1 +16.5
07 20.10 В 9
{15}
15 км 1/1 1000 м
[St Ci fib]
+17.3 +11.6 69 +16 +16 1022.6 1019.3
08 20.10 В 8 15 км 1/1 1000 м
[St Ci fib]
+18.3 +11.8 66 +18 +18 1023.0 1019.7
09 20.10 В 8
{16}
15 км 1/1 1000 м
[St Ci fib]
+19.6 +12.0 61 +20 +21 1023.1 1019.8
11 20.10 В 6 15 км 1/1 1000 м
[St Ci fib]
+22.1 +13.1 57 +25 +27 комфорт 1022.6 1019.3
10 20.10 В 7
{15}
15 км 1/1 1000 м
[St Ci fib]
+21.1 +11.9 56 +23 +25 комфорт 1022.9 1019.6
12 20.10 В 9
{16}
15 км 4/1 1000 м
[St Ci fib]
+21.9 +11.5 52 +24 +25 комфорт 1022.6 1019.3
13 20.10 В 7 15 км 8/1 1000 м
[St Ci sp]
+21.3 +10.7 51 +23 +24 комфорт 1022.3 1019.0
18 20.10 В 7 15 км 6/0
[Ci sp]
+18.3 +12.0 67 +18 +18 1021.8 1018.5 +22.5
19 20.10 В 6 15 км 9/0
[Cs]
+17.7 +11.7 68 +17 +17 1021.8 1018.5
20 20.10 ЮВ 4 15 км 4/1 1000 м
[Sc Ci sp]
+17.8 +12.2 70 +18 +18 1022.2 1018.9
03 21.10 В 7 15 км 6/0
[Ac trans Ci sp]
+17.0 +7.4 53 +16 +16 1021.5 1018.2
04 21.10 В 6 15 км 9/0
[Ac As Ci sp]
+16.9 +7.0 52 +16 +16 1020.6 1017.3
05 21.10 В 8 15 км 8/4 1000 м
[Sc Ac As]
+16.1 +7.8 58 +15 +15 1020.9 1017.6
06 21.10 В 8 15 км 9/5 1000 м
[Sc Ac As]
+15.2 +9.4 68 +13 +13 1021.3 1017.9 +15.0
07 21.10 В 12 15 км 10/8 1000 м
[Sc Ac As]
+14.0 +8.2 68 +11 +11 1021.7 1018.3
08 21.10 В 9 15 км в посл. час дождь 10/8 1000 м
[Sc Ac As]
+13.7 +7.9 68 +11 +11 1021.9 1018.5
09 21.10 В 11 15 км {дождь} 10/8 1000 м
[Sc Ac As]
+13.0 +6.9 66 +10 +10 1021.9 1018.5
10 21.10 В 9 15 км 9/9 1000 м
[Sc]
+12.2 +5.9 65 +9 +9 1022.1 1018.7
11 21.10 В 9 20 км 8/8 1000 м
[Sc]
+13.7 +6.1 60 +11 +11 1021.6 1018.2
12 21.10 В 8 20 км слабый дождь 9/9 1000 м
[Sc]
+13.4 +5.8 60 +11 +11 1022.3 1018.9 0.0
13 21.10 ЮВ 8 20 км в посл. час дождь 9/9 1000 м
[Sc]
+12.4 +6.4 67 +9 +10 1022.5 1019.1
18 21.10 ЮВ 1 25 км 1/1 1000 м
[Sc]
+25.3 +17.3 61 +29 +29 душно 1014.3 1011.1 +30.2
20 21.10 В 7 30 км 4/4 1000 м
[Sc]
+12.0 +6.1 67 +9 +9 1022.1 1018.7
19 21.10 В 8 25 км 8/8 1000 м
[Sc]
+12.2 +5.9 65 +9 +9 1021.7 1018.3
03 22.10 В 11 30 км 3/1 1000 м
[St Ci sp]
+11.2 +5.6 68 +7 +7 1018.0 1014.6
04 22.10 В 10 30 км 1/1 1000 м
[St]
+11.2 +6.1 71 +7 +7 1018.5 1015.1

 

Местоположение метеостанции Senj (Хорватия): широта 45.00 долгота 14.90 высота над уровнем моря 28 м.

В архиве по умолчанию представлена погода в Senj за последнюю неделю. Архивные данные за месяц целиком и за предыдущие месяцы, начиная с января 2011 года, Вы можете получить, выбрав интересующий диапазон дат из раскрывающегося списка и нажав кнопку "Ввод!".


*Определитесь, кто Вы:
робот инопланетянин человек

Внимание! Время в таблицах - всемирное. Для получения местного времени необходимо прибавить поправку, которая в Senj равна 1 ч.

Смотрите также архив погоды в соседних городах и на ближайших метеорологических станциях:

Погода в Zavizan (Хорватия) (21 км)
Погода в Rab (Хорватия) (30 км)
Погода в Rijeka-Omisalj (Хорватия) (35 км)
Погода в Ogulin (Хорватия) (40 км)
Погода в Rijeka-Kozala (Хорватия) (51 км)
Погода в Mali Losinj (Хорватия) (62 км)
Погода в Gospic (Хорватия) (62 км)
Погода в Crnomelj (Словения) (66 км)
Погода в Parg (Хорватия) (70 км)
Погода в Kocevje (Словения) (72 км)

Пояснения к столбцам:

Ветер - указаны скорость ветра в м/с - средняя за 10 мин, порывы в срок и между сроками (в фигурных скобках) и направление, откуда дует ветер: С - северный, СВ - северо-восточный, В - восточный, ЮВ - юго-восточный, Ю - южный, ЮЗ - юго-западный, З - западный, СЗ - северо-западный.
Видимость - горизонтальная дальность видимости в метрах или километрах. При видимости от 1 до 10 км при отсутствии осадков обычно наблюдается дымка, при ухудшении видимости до 1 км и менее - туман. В сухую погоду видимость может ухудшаться дымом, пылью или мглою.
Явления - указаны атмосферные явления, наблюдавшиеся в срок или в последний час перед сроком; фигурными скобками обозначены явления, наблюдавшиеся между сроками (за 1-3 часа до срока); квадратными скобками обозначены град или гололедные отложения с указанием их диаметра в мм.
Облачность - указаны через наклонную черту общая и нижняя облачность в баллах и высота нижней границы облаков в метрах; квадратными скобками обозначены формы облаков: Ci - перистые, Cs - перисто-слоистые, Cc - перисто-кучевые, Ac - высококучевые, As - высокослоистые, Sc - слоисто-кучевые, Ns - слоисто-дождевые, Cu - кучевые, Cb - кучево-дождевые. Подробнее классификацию облаков см. в Атласе облаков (PDF).
T - Температура воздуха - температура, измеренная на высоте 2 м над землей.
Td - Температура точки росы - температура, при понижении до которой содержащийся в воздухе водяной пар достигнет насыщения.
f - Относительная влажность воздуха - влажноcть воздуха, измеренная на высоте 2 м над землей.
Te - Эффективная температура - температура, которую ощущает одетый по сезону человек в тени. Характеристика душности погоды. При расчете учитывается влияние влажности воздуха и скорости ветра на теплоощущения человека.
Tes - Эффективная температура на солнце - температура, которую ощущает человек, с поправкой на солнечный нагрев. Характеристика знойности погоды. Зависит от высоты солнца над горизонтом, облачности и скорости ветра. Ночью, в пасмурную погоду, а также при ветре 12 м/с и более поправка равна нулю.
P - Атмосферное давление - приведенное к уровню моря атмосферное давление.
Po - Атмосферное давление - измеренное на уровне метеостанции атмосферное давление.
Tmin - Минимальная температура - минимум температуры воздуха на высоте 2 м над землей.
Tmax - Максимальная температура - максимум температуры воздуха на высоте 2 м над землей.
R - Количество осадков - Количество выпавших осадков за период времени, мм. При наведении курсора мыши на число - период времени, за который выпало указанное количество осадков.
R24 - Количество осадков - Количество выпавших осадков за 24 часа, мм.
S - Снежный покров - Высота снежного покрова, см. При наведении курсора мыши на число - состояние снежного покрова и степень покрытия местности в баллах.